Location: Caltech
(34.1382°N, 118.1253°W)
Time: 05:05:34
(UTC-07:00)

Lacrosse 5 - Visible Passes

Search period start: 28 August 2016 00:00
Search period end: 07 September 2016 00:00
Orbit: 716 x 722 km, 57.0° (Epoch: 24 August)

Date Brightness Start Highest point End Pass type
(mag) Time Alt. Az. Time Alt. Az. Time Alt. Az.
28 Aug 3.4 20:17:13 10° NNW 20:21:13 23° NE 20:24:05 15° E visible
28 Aug 2.8 21:59:30 10° NW 22:03:17 44° W 22:03:17 44° W visible
29 Aug 1.8 21:06:14 10° NW 21:11:18 74° NE 21:12:11 58° ESE visible
29 Aug 4.7 22:51:21 10° W 22:51:24 10° W 22:51:24 10° W visible
30 Aug 2.6 20:13:14 10° NNW 20:17:59 39° NE 20:21:09 19° ESE visible
30 Aug 3.5 21:56:31 10° WNW 22:00:22 27° WSW 22:00:22 27° WSW visible
31 Aug 2.3 21:02:47 10° NW 21:07:44 56° SW 21:09:26 37° S visible
01 Sep 1.8 20:09:30 10° NW 20:14:34 73° NE 20:18:37 16° SE visible
01 Sep 4.3 21:54:34 10° W 21:56:57 13° WSW 21:57:50 13° SW visible
02 Sep 3.5 20:59:47 10° WNW 21:04:03 28° WSW 21:07:07 16° S visible
03 Sep 2.4 20:06:04 10° NW 20:11:01 57° SW 20:15:58 10° SSE visible
04 Sep 4.5 20:57:47 10° W 21:00:15 14° WSW 21:02:42 10° SW visible
05 Sep 3.7 20:03:03 10° WNW 20:07:21 28° WSW 20:11:38 10° S visible
